Flag for Serbia Weather past 2 weeks in Belgrade, Serbia

57 °F


Feels Like: 57 °F
Forecast: 54 / 64 °F
Wind: 5 mph from Northeast

Location: Belgrade Surcin Airport

Current Time: Oct 7, 2015 at 1:07:17 AM

Latest Report: Oct 7, 2015 at 12:00 AM

Visibility: 5 mi

Pressure: 29.86 "Hg

Humidity: 94%

Dew point: 55 °F

Location of BelgradeLocation

Historic Weather in Belgrade — Graph


Belgrade temperature yesterday

Maximum temperature yesterday: 70 °F (at 3:00 PM)
Minimum temperature yesterday: 54 °F (at 6:30 AM)
Average temperature yesterday: 61 °F

Past Weeks' High & Low Weather Summary

High82 °F (Sep 23, 2:30 PM)100% (Sep 25, 12:00 AM)30.42 "Hg (Sep 25, 12:00 AM)
Low45 °F (Oct 2, 7:00 AM)42% (Sep 23, 3:00 PM)29.74 "Hg (Sep 23, 3:30 AM)
Average61 °F80%30.09 "Hg
* Reported Sep 21 11:00 PM — Oct 6 11:30 PM, Belgrade, Weather by CustomWeather, © 2015

Note: Actual official high and low records may vary slightly from our data, if they occured in-between our weather recording intervals... More about our weather records


Belgrade weather history for previous 24 hours

Time TempWeatherWind HumidityBarometerVisibility
11:30 PM
Tue, Oct 6
57 °FClear.5 mph94%29.86 "Hg5 mi
11:00 PM57 °FClear.5 mph94%29.86 "Hg5 mi
10:30 PM59 °FClear.3 mph88%29.86 "Hg10 mi
10:00 PM59 °FClear.5 mph88%29.86 "Hg10 mi
9:30 PM57 °FClear.6 mph94%29.86 "Hg10 mi
9:00 PM59 °FClear.5 mph88%29.86 "Hg10 mi
8:30 PM59 °FClear.6 mph88%29.86 "Hg10 mi
8:00 PM61 °FClear.5 mph83%29.86 "Hg10 mi
7:30 PM61 °FClear.6 mph77%29.86 "Hg10 mi
7:00 PM63 °FSunny.6 mph73%29.86 "Hg10 mi
6:30 PM64 °FSunny.6 mph68%29.86 "Hg10 mi
6:00 PM64 °FSunny.6 mph68%29.86 "Hg10 mi
5:30 PM66 °FSunny.5 mph64%29.86 "Hg10 mi
5:00 PM68 °FPassing clouds.5 mph60%29.86 "HgN/A
4:30 PM68 °FSunny.1 mph60%29.86 "Hg10 mi
4:00 PM68 °FSunny.5 mph60%29.86 "Hg10 mi
3:30 PM68 °FPassing clouds.2 mph60%29.89 "HgN/A
3:00 PM70 °FPassing clouds.2 mph57%29.89 "HgN/A
2:30 PM68 °FPassing clouds.2 mph60%29.89 "HgN/A
2:00 PM66 °FScattered clouds.3 mph64%29.89 "HgN/A
1:30 PM66 °FPartly sunny.6 mph68%29.92 "HgN/A
1:00 PM66 °FPartly sunny.2 mph68%29.92 "HgN/A
12:30 PM66 °FPartly sunny.1 mph68%29.92 "HgN/A
12:00 PM66 °FScattered clouds.3 mph68%29.95 "HgN/A
11:30 AM66 °FScattered clouds.2 mph68%29.95 "HgN/A
11:00 AM64 °FScattered clouds.3 mph73%29.95 "HgN/A
10:30 AM64 °FScattered clouds.3 mph73%29.95 "HgN/A
10:00 AM61 °FScattered clouds.3 mph83%29.95 "Hg5 mi
9:30 AM61 °FPartly sunny.3 mph83%29.95 "Hg5 mi
9:00 AM59 °FScattered clouds.2 mph88%29.95 "Hg5 mi
8:30 AM57 °FFog.2 mph94%29.95 "Hg3 mi
8:00 AM55 °FFog.3 mph94%29.95 "Hg2 mi
7:30 AM54 °FCool.5 mph100%29.95 "Hg1 mi
7:00 AM54 °FFog.3 mph94%29.95 "Hg1 mi
6:30 AM54 °FFog.5 mph100%29.95 "Hg1 mi
6:00 AM55 °FPassing clouds.2 mph94%29.95 "Hg4 mi
5:30 AM55 °FPassing clouds.5 mph94%29.95 "HgN/A
5:00 AM55 °FPassing clouds.6 mph94%29.95 "HgN/A
4:30 AM55 °FPassing clouds.7 mph94%29.95 "HgN/A
4:00 AM55 °FPassing clouds.5 mph94%29.95 "HgN/A
3:30 AM55 °FPassing clouds.5 mph94%29.95 "HgN/A
3:00 AM55 °FPassing clouds.6 mph94%29.95 "HgN/A
2:30 AM55 °FPassing clouds.5 mph94%29.95 "HgN/A
2:00 AM57 °FPassing clouds.7 mph94%29.95 "HgN/A
1:30 AM57 °FPassing clouds.8 mph94%29.95 "HgN/A
1:00 AM57 °FPassing clouds.6 mph94%29.98 "HgN/A
Weather by CustomWeather, © 2015

See weather overviewHow to use our weather pages